Regional Weather Roundup
Issued by NWS Goodland, KS

Home | Current Version | Previous Version | Text Only | Print | Product List | Glossary Off
Versions: 1 2 3 4 5 6 7 8 9 10 11 12 13 14 15 16 17 18 19 20 21 22 23 24 25 26 27 28 29 30 31 32 33 34 35 36 37 38 39 40 41 42 43 44 45 46 47 48 49 50

000
ASUS43 KGLD 281059
RWRGLD

GOODLAND FORECAST AREA HOURLY WEATHER ROUNDUP
NATIONAL WEATHER SERVICE GOODLAND KS
500 AM MDT MON JUL 28 2014

...OFFICIAL OBSERVATIONS...

CITY           SKY/WX    TMP DP  RH WIND       PRES   REMARKS
GOODLAND KS    PTCLDY    59  53  80 SE6       30.33R
HILL CITY KS   PTCLDY    62  54  74 CALM      30.29R
IMPERIAL NEB   PTCLDY    57  50  77 E3        30.32S
MCCOOK NEB     PTCLDY    58  54  86 E3        30.31R
AKRON CO       PTCLDY    62  51  67 S7        30.34F
BURLINGTON CO  MOCLDY    64  55  72 CALM      30.35R
LIMON CO       MOCLDY    59  57  93 SE7       30.39S
$$

...UNOFFICIAL OBSERVATIONS...

CITY           SKY/WX    TMP DP  RH WIND       PRES   REMARKS
COLBY KS       CLEAR     61  54  77 E3        30.32S
LENORA KS        N/A     60  32  34 MISG        N/A
NORTON KS      CLEAR     57  52  82 CALM      30.30R
KIT CARSON CO    N/A     67  62  85 CALM        N/A
YUMA CO          N/A     58  51  78 SE7         N/A
$$


USA.gov is the U.S. government's official web portal to all federal, state and local government web resources and services.